Theta_e
347 347 347 346 345 345 348 350 348 349 349 348 348 347 348 347 347 347 346 346 345 342 342 343 344 344 347 346 346 345 344 344 343 343 343 343 342 342 342 342 342 341 341 341 339 340 340 342 343 344 344 342 342 334 333 333 333 335 334 337 337 334
346 345 345 345 344 344 344 346 343 344 345 345 345 346 345 344 347 344 346 342 340 342 339 339 342 346 344 345 343 344 344 343 343 343 342 341 341 341 340 340 340 340 339 338 338 328 331 341 343 344 345 343 333 332 332 332 333 334 335 334 335 338
346 345 345 344 343 343 342 343 343 343 343 344 344 345 343 342 338 338 338 339 339 338 339 340 341 344 344 344 344 344 343 343 342 341 341 341 339 339 339 339 341 339 338 335 327 326 326 326 335 344 344 334 331 331 332 332 332 333 333 335 334 340
345 345 344 343 343 343 343 343 343 343 343 342 342 342 340 339 337 336 336 336 337 338 337 339 345 346 347 341 342 343 343 342 342 341 341 341 341 340 340 339 338 337 334 330 327 328 327 327 329 332 332 331 331 331 331 332 332 332 333 338 334 339
345 344 343 342 341 341 342 342 342 342 341 341 339 339 338 336 335 334 335 336 336 336 335 336 337 337 337 337 336 336 335 335 335 336 337 332 331 332 331 329 329 331 327 329 328 327 328 329 330 332 331 331 331 331 331 332 332 332 334 336 338 340
344 343 342 341 340 341 341 340 341 341 340 339 339 338 337 335 335 335 334 336 337 334 334 335 335 335 334 334 334 333 333 333 333 333 334 330 330 330 330 330 330 330 329 329 329 329 330 330 329 331 331 331 331 331 331 332 333 334 334 336 340 340
342 341 341 341 341 340 340 341 340 340 339 338 337 336 335 335 335 335 334 336 334 332 333 334 334 334 334 333 332 331 331 331 331 331 333 330 330 330 330 330 329 329 329 329 329 328 327 327 330 331 331 330 331 331 332 332 333 334 334 336 340 340
341 340 339 340 338 338 339 339 340 341 339 339 337 335 334 334 334 334 334 335 335 332 333 334 333 334 333 332 330 330 330 330 330 330 331 330 330 329 330 329 329 328 329 328 328 327 326 327 329 331 330 330 330 331 332 333 333 334 334 335 338 340
340 339 339 339 337 338 338 339 340 339 338 340 336 335 334 334 332 333 333 335 335 331 331 333 333 333 333 331 329 329 329 328 328 329 329 328 329 329 328 329 328 329 327 326 326 327 328 328 329 330 330 330 331 330 332 333 334 334 335 336 337 340
339 339 338 338 337 337 338 338 338 339 339 338 335 334 334 333 332 332 331 332 333 331 331 331 332 331 331 329 330 330 329 328 330 331 328 328 329 329 328 328 328 327 327 326 328 329 328 328 329 330 330 331 331 332 333 333 334 334 334 335 337 340
339 338 338 337 336 337 338 337 338 339 339 336 336 335 334 333 333 332 331 332 331 332 330 330 331 330 329 329 330 329 328 329 329 329 328 329 330 330 329 328 328 327 326 325 326 328 328 328 328 329 331 331 331 333 333 334 334 334 334 335 335 337
338 337 337 336 337 336 337 337 338 338 336 336 336 334 333 333 333 332 331 330 330 331 332 329 329 328 329 330 329 328 328 328 328 329 329 330 331 331 330 331 331 330 328 327 326 327 328 329 328 329 330 331 332 333 333 333 334 334 334 333 333 335
337 337 336 335 336 337 337 337 337 337 336 336 335 334 333 334 333 333 332 330 329 331 331 329 328 330 331 329 328 327 328 329 329 331 332 333 332 333 332 331 329 328 326 326 327 327 328 328 328 329 331 332 333 333 333 333 332 333 333 332 333 333
337 336 336 336 336 336 336 337 337 336 336 335 333 333 334 334 334 333 332 329 329 331 329 329 329 329 328 327 326 327 328 329 330 332 333 332 331 331 329 329 327 327 328 325 325 326 327 327 328 330 331 332 332 333 333 331 331 332 332 332 332 332
336 335 336 335 335 335 335 336 336 336 335 334 332 332 333 334 334 333 331 329 329 331 329 330 329 329 328 327 326 326 327 329 330 332 332 331 331 330 329 327 327 325 324 325 326 327 327 327 328 329 329 331 331 332 332 331 331 332 332 331 331 331
336 335 334 335 334 334 334 335 336 337 335 334 332 332 333 334 334 333 331 328 329 331 329 330 330 329 328 327 327 327 328 330 332 332 332 332 331 328 328 327 327 325 324 324 325 325 327 327 328 328 329 330 331 331 330 330 330 331 331 331 330 330
334 333 332 333 333 333 334 334 335 336 334 332 331 331 332 334 333 332 330 328 329 331 329 330 330 329 328 327 327 328 329 331 332 333 333 332 330 329 328 327 326 326 324 323 324 325 326 328 328 328 329 329 330 330 329 330 330 330 331 328 329 331
334 334 332 332 333 333 334 334 334 334 334 331 330 331 332 333 333 332 330 327 329 331 330 330 329 328 328 328 327 328 330 330 331 332 333 331 329 329 329 328 325 326 326 324 324 325 325 327 328 328 328 328 328 329 328 330 331 331 329 329 329 332
335 334 332 332 332 332 333 334 334 333 331 330 330 330 331 331 332 333 330 328 329 331 331 330 330 329 328 330 328 328 329 328 328 329 331 330 328 328 328 327 326 325 325 325 326 326 327 327 327 327 327 328 328 328 328 328 328 329 329 329 331 331
334 334 333 332 332 332 333 333 332 332 331 330 329 330 329 330 330 332 331 329 329 330 331 330 329 329 329 330 329 328 328 327 327 328 330 328 326 326 327 326 325 325 325 326 327 327 327 326 326 326 325 326 328 329 328 328 328 328 329 330 329 329
332 332 332 330 331 331 331 331 332 332 331 329 329 329 328 327 328 329 330 330 330 331 330 330 329 329 328 332 329 329 328 326 327 327 330 329 328 328 329 328 325 325 324 324 324 325 326 326 324 322 324 324 325 328 327 326 325 326 326 327 328 328
330 331 331 331 331 331 332 332 332 331 330 329 329 328 325 326 327 329 329 329 330 330 330 329 330 328 329 329 326 328 329 327 327 327 328 327 325 328 328 326 325 323 324 324 323 325 324 321 319 320 319 319 322 324 325 325 325 325 326 326 326 326
329 329 329 329 329 329 330 332 332 330 330 325 325 327 327 328 330 328 327 328 329 329 328 328 329 329 328 328 328 329 329 328 327 328 327 327 326 326 327 325 324 324 322 322 323 322 321 320 318 320 320 319 316 317 320 322 325 326 326 325 326 325
329 329 328 329 328 327 330 330 329 329 327 325 324 327 326 327 326 327 327 328 328 327 327 327 328 329 328 327 327 328 328 328 327 328 328 328 328 327 326 324 323 323 323 321 321 322 323 322 320 320 314 312 314 316 313 316 319 322 326 325 325 324
328 327 328 329 327 328 328 326 326 326 327 326 326 324 324 322 323 326 326 328 328 328 327 327 327 327 327 325 325 326 327 327 327 325 328 327 328 328 327 325 324 323 323 323 319 319 322 323 320 321 317 313 313 313 314 316 319 319 324 323 324 324
327 327 328 327 327 329 328 326 325 325 323 321 321 322 322 323 322 325 325 325 327 328 328 327 326 326 327 325 324 324 326 326 325 324 326 327 327 328 326 324 324 324 322 322 322 319 320 322 323 323 319 318 316 313 314 319 318 312 320 323 323 325
327 327 327 327 327 328 326 325 326 325 324 323 322 319 319 321 324 321 324 325 325 326 327 326 325 325 325 325 324 324 325 326 326 324 327 325 325 327 327 326 325 324 323 322 321 320 319 319 321 321 320 320 321 317 322 319 314 316 313 318 321 321
327 326 326 326 327 328 326 325 324 324 324 322 323 321 321 321 320 323 323 323 324 324 324 324 324 324 324 325 324 323 324 325 325 325 327 325 325 325 325 326 326 325 323 323 322 321 319 319 321 320 320 318 318 319 318 317 320 318 316 313 313 318
326 326 325 326 326 326 326 325 324 323 322 322 322 321 321 322 321 322 321 320 322 322 321 320 322 323 323 325 327 324 323 324 324 325 328 325 324 324 325 325 324 323 322 322 322 322 321 320 320 319 318 316 318 317 317 318 319 319 317 315 314 314
325 325 325 325 326 324 325 324 322 322 322 320 320 319 320 318 318 319 319 318 318 319 317 317 318 320 321 322 324 324 322 324 325 325 328 325 324 324 323 324 325 324 323 322 322 322 321 321 321 320 321 319 316 315 316 316 316 318 318 318 314 313
323 323 324 325 325 323 322 323 323 322 321 319 319 319 317 315 316 317 318 317 317 315 314 315 317 317 318 320 320 323 322 322 323 326 327 324 324 325 324 324 324 323 323 322 321 321 321 320 321 319 318 320 319 318 317 315 315 317 317 316 315 314
324 324 323 324 323 321 322 322 322 321 320 319 320 320 318 316 316 317 316 316 314 315 314 315 316 317 317 317 319 319 321 321 323 323 324 323 323 324 325 324 324 323 323 321 321 321 320 320 319 319 319 319 319 318 315 317 318 318 318 318 317 314
324 324 323 323 322 320 320 320 320 320 319 320 320 319 317 316 316 316 315 315 315 315 313 316 316 317 317 316 317 317 318 320 321 322 321 321 321 322 323 323 323 323 322 321 321 320 320 319 319 320 320 319 319 317 316 318 318 318 319 320 317 312
324 323 322 321 321 319 319 319 320 320 319 320 319 319 317 316 315 316 316 316 316 316 316 317 316 317 316 315 316 317 319 318 318 319 319 319 320 321 322 323 323 322 322 322 320 319 319 319 318 319 319 319 319 318 316 318 318 319 319 318 315 312
320 319 320 319 319 318 318 318 319 319 319 319 319 318 317 317 316 316 316 316 315 315 316 315 317 316 316 315 315 314 316 316 317 318 318 319 320 320 320 321 321 320 320 319 320 320 319 318 318 318 318 320 318 317 317 317 318 320 321 319 316 313
318 318 318 317 317 316 316 316 317 317 317 319 319 317 317 317 317 317 316 316 315 315 316 315 314 315 314 315 314 314 316 315 316 316 317 317 317 318 318 318 317 318 318 319 319 318 318 317 318 317 319 317 318 317 317 317 318 319 320 319 316 314
318 318 319 318 318 317 317 316 316 316 316 317 317 317 317 316 317 316 316 315 315 314 314 314 315 315 314 312 312 312 313 314 315 315 315 315 315 315 316 317 315 314 315 314 318 318 317 318 317 317 318 318 319 317 317 316 316 317 317 316 315 315
Wind_Speed
8 10 9 9 8 8 11 15 14 16 16 15 14 15 14 15 13 12 11 11 9 6 6 6 7 7 10 7 8 10 10 10 9 9 10 8 7 6 6 7 8 8 8 8 8 6 6 6 7 8 14 14 14 7 6 5 5 4 4 4 5 4
9 10 10 7 6 6 8 10 7 7 7 10 12 12 10 7 9 6 11 8 5 5 5 5 6 7 5 7 8 11 10 10 10 10 9 9 7 6 5 6 7 7 7 7 7 4 3 4 7 8 13 12 7 5 5 6 5 5 4 4 4 5
8 10 9 7 6 6 7 6 6 6 6 9 9 8 6 7 5 6 5 5 5 5 5 6 5 6 6 10 9 11 11 11 10 9 9 9 6 5 4 5 7 6 5 6 4 4 3 3 3 10 10 7 5 5 5 5 5 4 4 4 3 8
9 10 8 7 6 6 6 6 5 5 6 6 6 6 6 6 6 5 5 5 5 5 5 5 8 11 9 5 7 11 12 11 11 10 9 5 5 5 6 7 8 6 4 3 4 3 3 3 4 4 5 5 5 5 5 5 5 4 4 4 3 10
9 8 7 7 8 6 6 6 5 5 5 6 6 6 6 6 5 5 5 5 5 5 4 4 5 5 5 5 5 5 5 5 4 4 5 4 3 3 4 3 3 3 2 3 4 4 4 3 4 5 5 5 5 5 6 5 5 4 4 4 4 10
8 7 7 7 7 8 7 5 6 6 6 5 6 6 5 5 5 5 4 5 5 6 5 5 5 5 5 5 5 5 5 4 4 3 3 3 3 3 2 2 3 2 2 2 3 3 3 4 5 5 5 5 5 5 5 5 4 4 4 4 5 9
8 7 7 7 7 6 5 5 5 6 6 5 5 6 6 5 5 5 5 5 5 5 5 5 5 5 5 4 5 5 4 4 4 3 2 3 2 2 2 2 2 2 1 2 3 2 3 4 4 5 5 5 5 5 5 5 4 4 3 3 3 10
8 7 7 6 6 5 5 6 6 8 6 7 6 6 6 5 6 5 5 5 5 5 6 5 5 5 4 4 4 4 4 4 3 3 2 2 3 2 2 1 1 2 3 3 4 4 3 4 4 5 6 5 5 5 5 5 4 4 3 3 4 7
8 7 6 7 7 5 5 6 6 6 7 9 5 5 5 5 5 4 4 5 5 5 5 5 5 4 4 4 3 4 4 3 2 2 3 1 1 2 1 1 1 2 4 4 4 4 4 4 4 4 6 5 6 6 5 5 5 4 3 3 4 4
8 8 7 7 5 7 7 6 7 7 6 8 5 5 6 5 4 5 4 4 4 4 5 5 5 4 5 4 3 4 4 3 2 1 1 1 2 1 2 1 1 2 5 4 4 3 4 4 4 4 5 5 6 5 5 5 5 4 3 3 3 3
10 8 6 7 7 8 7 7 7 6 5 7 6 5 5 4 4 4 4 4 4 4 5 5 5 4 4 3 3 3 3 2 1 0 0 1 1 1 1 2 2 3 4 4 4 3 4 5 4 4 4 5 5 5 5 5 5 4 4 3 3 4
8 7 8 7 8 9 8 8 8 6 6 7 6 5 4 4 4 4 4 4 4 4 4 4 5 4 4 3 3 3 2 2 1 1 0 2 2 1 2 3 3 4 3 4 4 4 4 4 4 4 4 5 5 5 5 5 5 5 4 4 4 4
7 8 8 9 8 8 7 8 8 6 6 6 5 5 5 4 4 4 4 4 4 4 3 4 4 4 4 3 3 3 2 2 1 1 1 2 2 2 3 3 4 4 4 4 5 5 4 4 5 5 5 5 5 6 5 6 5 4 4 4 4 4
8 8 9 7 7 7 7 6 6 5 6 6 5 5 5 5 5 4 4 5 5 4 4 4 4 3 4 4 3 3 3 3 2 2 1 2 2 3 3 3 3 4 4 4 5 4 4 6 5 5 5 5 5 5 6 7 4 4 5 4 4 5
8 8 9 8 8 7 6 6 6 6 5 5 5 5 5 5 5 4 4 5 5 5 5 4 4 4 4 4 3 3 3 2 2 2 2 1 2 3 3 3 2 4 4 5 5 5 5 5 6 6 6 5 6 6 7 6 4 4 5 4 4 5
9 8 7 7 7 7 7 6 6 6 5 5 5 5 5 5 5 5 4 4 4 4 4 5 4 4 4 3 3 2 2 2 3 2 2 2 2 3 3 3 2 2 5 4 6 6 5 6 6 6 6 6 6 7 7 5 5 5 3 4 3 5
8 7 7 6 6 5 6 6 6 6 6 6 5 5 5 5 4 4 4 4 5 4 4 4 4 4 5 4 3 3 3 3 3 3 2 2 2 3 3 2 2 3 2 4 6 7 6 6 6 6 6 7 6 6 6 5 5 4 3 4 4 4
7 6 6 6 6 6 6 6 5 5 6 6 6 5 5 6 5 4 4 5 5 4 4 4 5 5 5 4 4 3 3 3 3 2 3 2 2 3 3 2 2 3 3 4 6 6 7 6 5 6 7 7 8 6 6 5 4 3 4 4 2 2
8 7 6 6 6 6 6 5 5 6 6 6 5 5 5 5 5 5 4 5 5 5 5 5 5 5 5 4 3 4 3 5 4 3 3 2 2 3 3 3 3 4 5 5 5 5 6 6 6 6 6 8 7 7 5 4 3 3 4 4 4 4
7 7 7 5 5 6 6 6 7 6 6 5 4 5 4 5 5 5 5 5 5 5 6 6 5 4 5 4 4 4 4 3 4 4 4 3 3 4 4 5 4 6 8 7 5 5 6 7 7 7 8 8 7 7 7 5 5 4 4 4 3 2
8 8 7 6 6 6 6 6 6 6 6 4 5 4 5 4 4 4 4 4 5 5 6 5 5 5 5 5 4 4 4 3 4 5 5 5 4 5 6 5 5 4 7 8 5 4 5 5 8 6 6 8 8 8 7 5 6 5 5 4 4 2
8 8 8 7 6 5 4 5 5 6 5 4 5 5 4 4 4 4 5 5 5 5 6 6 5 5 5 5 4 5 6 5 4 4 4 3 4 4 6 6 6 5 3 5 4 5 3 4 3 5 7 6 7 8 6 6 6 6 5 6 3 2
8 8 8 7 6 6 3 4 5 5 6 4 2 2 4 4 5 5 4 4 4 4 5 4 4 6 6 5 5 5 5 5 4 5 5 5 5 6 6 7 6 7 5 2 2 2 1 0 4 4 4 5 3 3 2 4 5 5 5 5 4 3
9 8 7 7 6 5 6 6 5 6 6 5 4 4 4 4 4 5 4 3 3 4 4 4 4 5 4 5 6 5 5 4 5 5 5 6 6 6 6 6 6 6 7 6 3 4 1 2 4 8 4 2 2 3 5 3 5 4 6 7 3 2
9 8 7 8 8 7 7 7 7 7 7 7 6 5 5 3 3 4 4 4 4 4 4 4 4 4 4 5 4 5 5 4 5 4 4 4 5 6 6 6 7 7 7 7 5 2 3 1 2 3 5 5 4 2 1 4 5 3 4 6 3 2
7 8 9 9 9 7 7 8 8 8 7 5 5 5 5 6 5 5 5 3 4 4 4 4 4 5 4 5 5 5 5 5 4 4 4 4 3 4 5 6 6 7 7 4 7 5 3 1 1 3 2 1 2 3 7 5 4 4 4 5 4 2
9 8 9 9 9 7 7 7 9 9 8 8 8 4 2 3 6 4 5 6 4 4 4 5 4 4 5 4 5 5 5 5 4 4 4 4 4 5 5 5 5 5 6 6 5 6 6 4 3 1 1 1 0 1 7 9 3 5 6 3 4 5
8 8 8 9 8 8 9 7 7 7 7 7 6 6 5 4 3 5 6 5 5 3 4 4 5 4 4 5 5 5 5 5 5 4 5 5 5 5 4 4 5 4 4 5 6 7 6 5 7 4 1 1 3 4 3 4 7 7 6 7 6 6
6 7 7 8 8 7 8 8 8 7 7 4 5 6 4 4 5 4 6 4 4 4 4 3 4 5 5 5 5 5 5 5 5 5 4 4 4 5 7 6 5 4 5 5 5 4 5 5 5 5 4 3 4 4 4 4 6 5 7 8 6 5
6 6 7 8 8 7 7 7 8 8 9 6 6 5 5 5 4 4 5 4 5 5 4 3 3 3 4 4 4 5 5 5 5 5 5 5 4 5 5 5 6 6 5 5 4 4 5 4 5 4 4 5 4 3 4 4 4 6 5 3 8 7
4 2 7 8 7 7 6 7 8 8 9 9 7 8 6 5 5 4 5 3 4 4 3 4 3 2 2 3 4 4 4 4 4 4 4 5 5 5 5 5 5 5 5 6 5 5 4 3 4 4 4 6 7 7 7 5 7 6 7 7 8 7
10 9 7 8 8 7 7 6 6 8 9 9 9 7 8 7 6 6 5 5 3 4 3 3 2 3 3 3 4 4 3 3 4 4 5 5 5 5 5 5 5 5 5 5 4 5 5 4 5 4 5 4 5 4 2 4 6 7 8 8 8 8
9 9 9 8 9 8 7 7 7 8 8 8 8 8 8 7 6 6 5 5 5 4 3 3 1 2 1 2 3 4 5 5 5 5 4 4 4 5 5 5 5 5 4 5 5 5 5 5 6 6 5 4 4 4 3 3 6 6 5 7 9 9
6 6 7 6 7 7 6 6 6 8 7 8 7 8 7 8 6 6 6 6 6 6 5 5 4 4 3 1 1 1 3 4 3 3 4 4 4 4 4 5 5 5 5 4 3 4 4 4 4 4 4 4 4 3 3 4 6 7 9 9 8 10
6 0 2 4 4 6 6 5 5 6 7 6 8 7 7 7 7 6 4 6 4 5 6 5 6 3 2 2 1 2 3 4 4 5 4 4 4 4 4 4 3 4 4 3 4 4 3 4 5 5 5 5 4 3 4 5 6 7 9 9 10 10
10 11 11 11 10 9 7 2 5 6 5 6 6 6 6 5 5 6 6 6 6 5 5 5 3 4 2 2 2 3 3 4 4 5 4 4 4 4 5 5 4 4 4 2 4 4 4 3 4 5 5 4 4 4 4 5 5 6 7 8 9 8
12 12 13 11 7 7 7 2 1 5 6 6 7 8 7 6 6 4 5 5 6 5 4 4 5 3 4 2 2 3 3 3 4 5 5 4 4 4 3 3 4 4 4 3 4 5 3 4 4 5 5 6 5 4 4 4 4 5 5 6 7 8
Wind_Direction
131 129 125 126 131 136 138 134 135 138 140 140 138 134 134 132 132 130 127 117 106 101 101 104 100 102 103 102 105 110 113 110 106 106 97 89 87 85 73 68 70 67 70 71 71 64 69 93 107 127 149 147 137 118 128 119 115 115 114 111 120 144
129 131 125 130 134 134 136 132 130 134 134 136 138 135 126 121 119 107 113 108 107 104 103 103 101 104 98 104 106 110 110 105 105 104 96 89 81 67 66 66 65 63 67 73 74 59 33 68 116 131 149 132 111 128 125 121 116 119 112 118 134 154
127 128 127 125 123 116 114 114 118 123 129 132 135 121 111 105 87 100 104 110 106 106 106 100 100 107 105 110 108 107 107 102 101 100 94 90 88 83 71 68 68 70 72 75 77 81 84 59 82 134 127 114 124 118 116 107 106 107 118 134 140 140
132 132 133 130 123 120 120 119 120 115 116 111 109 109 102 107 101 104 111 109 107 103 96 109 124 115 102 87 105 109 108 110 109 104 98 83 93 89 67 54 62 54 48 68 81 78 86 72 90 93 111 122 119 119 114 111 110 111 125 134 167 138
135 139 135 131 126 125 123 121 116 116 113 111 109 109 112 108 113 114 109 108 108 100 82 77 69 76 83 87 78 71 70 75 76 71 87 83 61 59 53 56 47 43 7 73 87 105 113 104 90 113 116 121 123 120 107 106 110 119 129 131 155 140
140 140 136 130 127 128 128 125 120 116 110 106 113 116 115 116 119 120 122 117 106 97 94 87 80 83 82 91 87 82 77 80 76 75 81 94 79 62 57 44 65 50 2 68 113 138 145 133 117 115 117 123 122 110 105 108 116 117 131 141 152 147
142 133 124 119 121 125 130 122 112 114 115 112 115 117 119 115 131 140 135 129 119 110 106 105 100 89 90 89 88 85 85 78 92 89 69 107 93 57 32 19 11 41 349 86 98 112 118 98 121 127 122 120 115 108 111 116 118 118 129 138 150 130
138 135 127 120 116 124 123 125 125 125 118 131 126 130 132 138 146 151 143 132 115 118 127 121 110 104 103 86 88 89 96 93 87 75 70 69 89 43 49 25 35 52 38 34 51 58 80 91 112 131 127 118 110 109 110 117 110 114 120 131 129 130
141 134 127 129 130 126 127 126 130 127 134 151 143 142 145 147 150 152 139 128 129 119 110 115 113 111 106 101 100 94 101 101 76 50 74 48 71 89 92 77 64 59 57 59 69 80 94 87 101 127 129 121 112 113 119 116 118 120 123 121 120 130
149 145 134 133 134 136 140 139 133 142 158 149 155 144 149 147 151 139 127 110 101 113 118 122 116 117 117 119 108 99 79 69 75 43 17 65 63 116 140 115 54 41 64 68 82 96 98 97 100 107 121 122 126 126 129 130 126 122 116 106 108 100
158 150 137 142 144 144 147 140 143 152 149 149 151 144 140 134 124 110 109 104 102 109 114 113 116 120 117 121 106 91 79 73 66 341 291 100 58 100 124 81 56 58 66 84 88 82 97 105 109 101 113 121 129 130 131 120 113 106 100 106 90 74
149 144 151 143 148 149 149 150 151 154 146 149 151 138 134 129 132 122 114 111 111 105 107 105 116 115 127 127 114 110 102 104 194 233 130 86 68 79 74 61 55 61 75 89 87 73 72 97 91 76 93 110 124 123 119 115 101 90 92 87 80 72
149 156 157 152 156 156 152 154 156 148 139 144 144 136 135 138 131 119 110 100 100 101 96 116 111 123 132 135 128 124 119 126 159 147 110 97 96 50 54 50 45 56 67 71 77 73 81 72 91 92 99 108 111 116 107 66 54 77 112 99 80 76
158 161 166 158 153 153 156 150 144 135 139 139 136 136 139 128 130 125 114 111 115 114 115 115 127 114 117 120 120 121 136 130 135 145 123 95 84 69 63 64 50 55 59 68 75 66 87 90 85 87 90 103 109 107 89 101 137 143 85 65 85 75
164 163 167 160 159 157 151 147 142 136 138 137 127 124 128 129 132 127 125 127 130 131 132 132 134 132 127 127 115 110 124 128 144 157 141 105 109 82 74 70 52 81 70 69 71 69 80 91 100 90 89 96 105 99 91 114 118 76 71 71 73 74
166 167 166 166 160 153 151 145 140 141 133 128 119 122 130 138 136 132 137 133 136 133 136 135 137 133 128 120 128 139 133 140 154 152 150 129 113 98 85 75 56 45 101 79 86 77 76 90 84 81 82 83 86 94 97 118 112 104 81 68 71 79
172 167 165 165 154 149 144 141 142 134 131 122 123 129 130 126 127 131 135 138 141 140 137 129 128 128 126 133 135 147 141 146 161 157 149 117 96 95 105 101 60 43 42 108 101 98 89 90 80 77 78 81 82 95 108 103 85 80 66 76 45 89
171 166 163 165 162 150 141 130 127 125 126 123 129 135 134 132 134 138 144 148 147 140 138 127 125 128 128 140 136 117 136 139 142 153 130 140 98 93 105 116 93 53 59 89 112 107 109 102 83 78 80 81 82 74 66 63 88 89 93 90 99 125
164 163 164 161 151 132 124 117 111 117 116 119 120 124 130 128 136 145 156 152 148 140 136 134 140 143 130 132 112 117 140 163 136 163 135 139 125 119 117 111 114 94 70 72 98 105 112 102 85 77 75 77 78 81 89 80 78 106 115 123 160 122
159 158 157 152 144 139 133 138 130 118 112 116 123 123 121 135 148 154 157 152 150 144 145 152 148 143 135 134 147 152 158 130 138 128 159 169 163 144 143 129 122 113 99 91 79 96 109 107 88 78 74 67 70 83 74 86 85 78 100 92 64 64
154 154 156 154 153 151 150 143 139 137 131 136 140 127 130 146 152 151 143 149 153 147 152 150 145 141 140 150 149 154 131 149 159 159 172 195 157 139 141 132 116 97 113 114 107 105 115 112 108 86 72 72 67 68 80 83 69 55 59 50 42 59
149 154 155 154 145 145 155 162 146 139 127 134 137 138 138 157 144 132 145 155 155 154 157 162 155 151 150 148 153 167 149 166 159 152 162 132 114 134 134 130 125 93 53 121 122 149 162 94 53 126 126 104 80 76 69 61 73 63 65 72 88 108
157 156 152 145 144 145 138 132 142 140 135 114 87 128 135 136 130 137 153 152 151 151 150 149 149 150 148 159 162 158 156 161 163 154 154 155 145 147 147 144 147 137 131 79 120 159 315 27 132 110 89 101 106 119 94 48 63 66 71 67 59 69
158 151 144 143 139 140 136 129 115 121 107 116 142 108 83 102 110 123 125 134 123 137 140 137 143 147 144 152 159 156 153 157 162 160 158 154 153 150 144 145 136 143 138 136 153 199 279 320 145 140 112 77 144 103 111 85 77 47 74 89 98 63
151 147 146 144 145 142 125 109 110 100 102 89 79 91 98 74 123 140 129 129 141 133 133 136 147 146 143 151 146 142 154 156 155 154 149 150 158 158 158 159 152 150 169 156 163 179 228 303 173 47 144 118 84 124 187 140 115 48 62 81 83 92
148 149 154 153 152 149 147 141 135 131 124 109 120 136 157 164 162 155 153 133 124 140 142 144 150 147 149 150 152 152 152 151 151 146 150 155 154 149 157 158 176 168 170 184 157 154 187 292 99 42 96 131 162 168 157 155 144 123 66 84 112 90
161 156 154 153 155 147 143 148 148 148 147 151 156 202 173 154 145 140 129 137 136 137 147 149 155 150 152 154 148 150 154 158 154 157 152 146 163 176 177 183 165 172 182 150 137 171 180 177 105 37 31 342 283 78 149 144 135 124 114 88 65 71
162 157 156 152 155 157 149 152 143 139 142 147 159 163 161 139 112 125 119 124 123 122 133 144 143 146 152 149 147 153 157 157 162 171 164 170 173 175 172 182 186 186 157 171 171 177 184 175 176 178 35 60 81 102 77 72 135 149 130 125 105 75
146 146 146 153 152 157 151 151 144 136 132 143 142 140 124 114 121 118 109 109 115 126 119 131 152 151 152 153 161 165 167 166 168 176 176 173 163 166 177 177 179 173 181 189 195 177 154 188 181 165 138 76 91 86 64 67 116 113 137 128 117 128
145 147 150 160 157 144 142 136 134 138 136 133 120 106 118 121 123 123 118 130 134 134 142 124 128 139 143 158 160 164 170 178 182 175 173 176 165 166 176 179 187 187 181 187 199 183 187 181 197 159 172 148 114 105 72 75 65 107 83 91 142 153
83 148 163 164 156 141 143 142 140 142 139 135 135 130 118 111 114 112 130 151 137 121 100 120 122 112 148 156 170 175 180 192 182 176 167 165 181 183 185 185 188 184 177 182 187 197 213 185 176 169 167 163 158 168 168 170 170 155 142 131 126 131
165 173 179 163 153 149 143 139 140 138 139 141 142 144 141 148 154 150 151 150 131 96 67 67 81 113 128 141 154 179 186 165 177 178 187 190 189 185 180 177 176 186 192 189 172 175 189 183 179 187 179 178 181 168 112 148 161 151 144 147 139 136
183 170 176 167 158 149 137 142 142 138 138 145 147 144 143 147 161 148 147 133 131 126 106 98 165 145 229 143 135 143 160 171 182 193 175 174 191 182 170 172 176 182 187 191 190 181 179 191 175 187 192 189 167 167 162 143 138 134 122 131 134 125
174 172 162 157 147 137 133 137 140 137 143 146 143 144 147 146 156 149 151 147 150 155 165 174 174 190 198 154 125 173 150 140 137 142 146 157 157 164 163 172 173 178 194 212 183 197 192 149 164 186 159 163 174 161 136 142 140 138 139 138 144 139
107 23 104 107 109 111 113 125 131 135 145 148 143 144 149 149 147 140 140 135 142 153 160 179 176 178 142 133 128 110 120 119 120 120 122 122 125 131 140 130 144 167 173 179 201 205 219 147 156 167 176 176 154 147 145 159 155 155 153 154 149 151
75 65 57 57 56 52 36 35 124 134 144 137 131 130 129 130 131 139 145 145 154 166 165 153 146 134 146 127 143 114 106 115 111 104 98 111 127 126 133 129 122 137 156 146 174 199 213 158 164 164 168 137 135 150 153 159 164 156 161 157 151 153
84 91 103 117 133 138 129 75 121 135 138 139 144 147 146 141 136 127 133 145 147 153 136 138 141 137 134 99 90 96 103 108 109 112 102 102 108 104 96 101 122 127 148 157 170 203 173 177 171 161 157 163 152 146 149 139 131 141 142 147 160 162